1493758800.84,36289,13.31,74006.0,-1.71,-30.33,-31.39,0,*5A
1493758802.11,36290,13.31,74006.8,-1.71,-30.17,-31.23,0,*5F
1493758803.35,36291,13.31,74006.8,-1.71,-30.11,-31.23,0,*58
1493758804.56,36292,13.31,74004.3,-1.71,-30.11,-31.17,0,*5C
1493758805.77,36293,13.31,74004.8,-1.71,-30.27,-31.17,0,*58
1493758807.02,36294,13.31,74006.0,-1.71,-30.17,-31.17,0,*5C
1493758808.25,36295,13.31,74004.3,-1.71,-30.33,-31.23,0,*5C
1493758809.48,36296,13.31,74004.5,-1.73,-30.33,-31.33,0,*5C
1493758810.69,36297,13.31,74008.5,-1.71,-30.33,-31.33,0,*5F
1493758811.93,36298,13.31,74006.8,-1.71,-30.27,-31.23,0,*54
1493758813.13,36299,13.31,74006.5,-1.71,-30.33,-31.33,0,*51
1493758814.34,36300,13.31,74006.3,-1.71,-30.33,-31.33,0,*50
1493758815.57,36301,13.31,74006.0,-1.71,-30.33,-31.39,0,*5B
1493758816.82,36302,13.31,74010.8,-1.71,-30.27,-31.23,0,*56
1493758818.06,36303,13.31,74004.0,-1.71,-30.33,-31.23,0,*52
1493758819.28,36304,13.31,74004.5,-1.73,-30.33,-31.33,0,*56
1493758820.51,36305,13.31,74004.3,-1.71,-30.45,-31.39,0,*5E
1493758821.77,36306,13.31,74010.8,-1.71,-30.51,-31.39,0,*58
1493758823.02,36307,13.31,74006.3,-1.71,-30.51,-31.57,0,*51
1493758824.3,36308,13.31,74002.3,-1.73,-30.51,-31.57,0,*5C
1493758825.55,36309,13.31,74004.8,-1.73,-30.45,-31.39,0,*50
1493758826.81,36310,13.31,74006.0,-1.73,-30.51,-31.45,0,*56
1493758828.04,36311,13.31,74004.5,-1.75,-30.55,-31.45,0,*55
1493758829.29,36312,13.31,74004.0,-1.73,-30.51,-31.33,0,*55
1493758830.54,36313,13.31,74004.5,-1.73,-30.45,-31.39,0,*5B
1493758831.8,36314,13.31,74004.3,-1.75,-30.51,-31.39,0,*5F
1493758833.03,36315,13.31,74006.8,-1.73,-30.45,-31.17,0,*51
1493758834.28,36316,13.31,74006.8,-1.73,-30.45,-31.23,0,*55
1493758835.51,36317,13.31,74004.8,-1.73,-30.45,-31.33,0,*55
1493758836.76,36318,13.31,74006.8,-1.73,-30.45,-31.23,0,*5B
1493758837.99,36319,13.31,74006.0,-1.73,-30.45,-31.17,0,*5D
1493758839.25,36320,13.31,74006.3,-1.73,-30.45,-31.23,0,*50
1493758840.51,36321,13.31,74004.3,-1.75,-30.51,-31.23,0,*52
1493758841.78,36322,13.31,74010.3,-1.73,-30.51,-31.39,0,*5C
1493758843.04,36323,13.31,74006.8,-1.73,-30.61,-31.33,0,*54
1493758844.27,36324,13.31,74010.5,-1.73,-30.45,-31.17,0,*53
1493758845.5,36325,13.31,74006.8,-1.75,-30.55,-31.29,0,*58
1493758846.77,36326,13.31,74004.5,-1.73,-30.61,-31.39,0,*5B
1493758848.03,36327,13.31,74004.3,-1.73,-30.51,-31.33,0,*53
1493758849.24,36328,13.31,74004.8,-1.75,-30.67,-31.29,0,*54
1493758850.52,36329,13.31,74004.0,-1.73,-30.51,-31.23,0,*5C
1493758851.75,36330,13.31,74004.3,-1.75,-30.55,-31.29,0,*5C
1493758853.01,36331,13.31,74010.5,-1.73,-30.51,-31.17,0,*52
1493758854.29,36332,13.31,74008.3,-1.73,-30.51,-31.23,0,*56
1493758855.57,36333,13.31,74008.3,-1.73,-30.51,-31.23,0,*57
1493758856.79,36334,13.31,74008.0,-1.75,-30.67,-31.45,0,*53
1493758858.05,36335,13.31,74008.3,-1.73,-30.67,-31.39,0,*5F
1493758859.29,36336,13.31,74010.0,-1.75,-30.73,-31.45,0,*54
1493758860.53,36337,13.31,74008.3,-1.75,-30.67,-31.23,0,*50
1493758861.75,36338,13.31,74010.5,-1.75,-30.67,-31.29,0,*55
1493758863.03,36339,13.31,74008.8,-1.73,-30.61,-31.23,0,*5E
1493758864.29,36340,13.31,74008.3,-1.75,-30.55,-31.23,0,*51
1493758865.55,36341,13.31,74006.5,-1.75,-30.51,-31.23,0,*54
1493758866.83,36342,13.25,74004.0,-1.73,-30.61,-31.23,0,*52
1493758868.08,36343,13.31,74004.8,-1.73,-30.61,-31.33,0,*52
1493758869.3,36344,13.31,74010.3,-1.75,-30.67,-31.29,0,*5E
1493758870.53,36345,13.31,74010.0,-1.75,-30.55,-31.05,0,*50
1493758871.78,36346,13.31,74006.5,-1.75,-30.55,-31.11,0,*56
1493758873.04,36347,13.31,74008.0,-1.75,-30.51,-31.11,0,*53
1493758874.3,36348,13.25,74000.3,-1.75,-30.51,-31.11,0,*5C
1493758875.53,36349,13.31,74006.8,-1.75,-30.51,-31.05,0,*58
1493758876.76,36350,13.31,74008.5,-1.73,-30.45,-31.17,0,*50
1493758878.02,36351,13.31,74002.3,-1.75,-30.51,-31.11,0,*54
1493758879.28,36352,13.31,74010.0,-1.75,-30.51,-31.11,0,*57
1493758880.5,36353,13.31,74006.5,-1.73,-30.45,-31.01,0,*54
1493758881.73,36354,13.31,74004.3,-1.73,-30.45,-31.01,0,*53
1493758882.98,36355,13.31,74004.8,-1.73,-30.51,-31.05,0,*53
1493758884.24,36356,13.31,74000.8,-1.75,-30.51,-30.95,0,*5E
1493758885.46,36357,13.31,74004.8,-1.73,-30.33,-31.01,0,*51
1493758886.69,36358,13.31,74004.3,-1.73,-30.45,-31.01,0,*5F
1493758887.92,36359,13.31,74006.8,-1.75,-30.51,-31.05,0,*59
1493758889.14,36360,13.31,74008.8,-1.73,-30.45,-31.01,0,*54
1493758890.37,36361,13.31,74008.0,-1.73,-30.45,-31.01,0,*55
1493758891.6,36362,13.31,74000.5,-1.75,-30.51,-31.05,0,*51
1493758892.86,36363,13.31,74006.5,-1.73,-30.45,-30.89,0,*56
1493758894.12,36364,13.31,74004.3,-1.73,-30.33,-30.89,0,*50
1493758895.38,36365,13.31,74006.3,-1.73,-30.45,-30.89,0,*50
1493758896.63,36366,13.31,74006.0,-1.73,-30.45,-30.89,0,*53
1493758897.92,36367,13.31,74004.3,-1.73,-30.51,-30.89,0,*57
1493758899.17,36368,13.31,74004.3,-1.73,-30.51,-31.01,0,*59
1493758900.42,36369,13.31,74004.0,-1.73,-30.61,-31.01,0,*5B
1493758901.66,36370,13.31,74006.3,-1.73,-30.67,-31.17,0,*52
1493758902.88,36371,13.31,74006.0,-1.73,-30.45,-31.01,0,*54
1493758904.11,36372,13.31,74002.8,-1.75,-30.51,-31.05,0,*50
1493758905.35,36373,13.31,74002.3,-1.71,-30.61,-31.01,0,*52
1493758906.58,36374,13.31,74006.5,-1.71,-30.61,-31.01,0,*55
1493758907.78,36375,13.31,74006.0,-1.71,-30.45,-31.01,0,*52
1493758909.06,36376,13.31,74006.5,-1.69,-30.39,-30.95,0,*5F
1493758910.33,36377,13.31,74004.3,-1.69,-30.39,-30.95,0,*5E
1493758911.56,36378,13.31,74004.0,-1.71,-30.51,-31.01,0,*5A
1493758912.8,36379,13.31,74006.3,-1.71,-30.51,-31.01,0,*5B
1493758914.03,36380,13.31,74006.8,-1.71,-30.51,-31.05,0,*59
1493758915.26,36381,13.31,74004.5,-1.71,-30.51,-31.01,0,*5C
1493758916.49,36382,13.31,74004.0,-1.71,-30.51,-31.01,0,*5F
1493758917.72,36383,13.31,74006.8,-1.71,-30.51,-31.01,0,*5E
1493758918.93,36384,13.31,74004.8,-1.71,-30.67,-31.01,0,*5C
1493758920.14,36385,13.31,74004.5,-1.71,-30.45,-31.01,0,*5D
1493758921.38,36386,13.31,74006.3,-1.69,-30.45,-30.83,0,*5C
1493758922.59,36387,13.31,74004.5,-1.71,-30.67,-31.05,0,*5B
1493758923.81,36388,13.31,74006.5,-1.71,-30.55,-31.01,0,*51
1493758925.02,36389,13.31,74002.3,-1.71,-30.45,-31.01,0,*51
1493758926.28,36390,13.31,74004.3,-1.69,-30.39,-30.83,0,*50
1493758927.57,36391,13.31,74004.5,-1.69,-30.39,-30.77,0,*5A
1493758928.82,36392,13.31,74006.8,-1.69,-30.45,-30.95,0,*5E
1493758930.05,36393,13.31,74004.3,-1.71,-30.51,-31.01,0,*5F
1493758931.33,36394,13.31,74004.3,-1.69,-30.61,-30.95,0,*5E
1493758932.58,36395,13.31,74006.0,-1.69,-30.61,-31.01,0,*53
1493758933.82,36396,13.31,74006.8,-1.69,-30.45,-30.83,0,*5D
1493758935.09,36397,13.31,74006.8,-1.69,-30.55,-30.95,0,*5A
1493758936.35,36398,13.31,74008.5,-1.69,-30.61,-31.01,0,*5E
1493758937.63,36399,13.31,74006.5,-1.69,-30.61,-30.95,0,*53
1493758938.9,36400,13.25,74000.5,-1.69,-30.55,-30.95,0,*53
1493758940.16,36401,13.31,74004.3,-1.69,-30.45,-30.95,0,*53
1493758941.43,36402,13.31,74004.0,-1.69,-30.61,-30.95,0,*56
1493758942.69,36403,13.31,74002.0,-1.69,-30.45,-30.95,0,*51
1493758943.96,36404,13.31,74006.3,-1.69,-30.55,-30.95,0,*57
1493758945.21,36405,13.31,74002.5,-1.69,-30.45,-30.95,0,*57
1493758946.46,36406,13.31,74004.0,-1.69,-30.45,-30.95,0,*54
1493758947.72,36407,13.31,74006.0,-1.69,-30.61,-31.01,0,*5F
1493758948.97,36408,13.31,74002.5,-1.69,-30.61,-31.01,0,*50
1493758950.23,36409,13.25,74000.3,-1.69,-30.73,-31.01,0,*52
1493758951.49,36410,13.31,74006.3,-1.69,-30.73,-31.01,0,*5A
1493758952.77,36411,13.31,74004.5,-1.69,-30.55,-30.95,0,*53
1493758954.02,36412,13.31,74004.3,-1.69,-30.45,-30.95,0,*51
1493758955.27,36413,13.31,74004.8,-1.69,-30.45,-30.95,0,*50
1493758956.54,36414,13.31,74006.3,-1.69,-30.55,-30.95,0,*56
1493758957.82,36415,13.31,74004.3,-1.69,-30.55,-30.95,0,*57
1493758959.07,36416,13.31,74000.5,-1.69,-30.45,-30.95,0,*55
1493758960.3,36417,13.31,74004.0,-1.69,-30.45,-31.01,0,*58
1493758961.56,36418,13.31,74002.5,-1.71,-30.73,-31.23,0,*5B
1493758962.84,36419,13.31,74006.3,-1.69,-30.55,-30.95,0,*5B
1493758964.09,36420,13.31,74006.0,-1.69,-30.61,-31.01,0,*5A
1493758965.32,36421,13.31,74002.0,-1.69,-30.45,-31.01,0,*5D
1493758966.6,36422,13.31,74006.3,-1.69,-30.61,-30.95,0,*54
1493758967.83,36423,13.31,74000.8,-1.67,-30.55,-31.01,0,*50
1493758969.1,36424,13.31,74002.5,-1.69,-30.55,-30.95,0,*55
1493758970.33,36425,13.31,74004.3,-1.69,-30.45,-31.01,0,*59
1493758971.58,36426,13.31,74004.5,-1.69,-30.55,-31.01,0,*5B
1493758972.79,36427,13.31,74008.5,-1.71,-30.67,-31.05,0,*56
1493758974.05,36428,13.31,74002.8,-1.69,-30.61,-31.01,0,*52
1493758975.32,36429,13.31,74004.0,-1.69,-30.55,-30.95,0,*58
1493758976.6,36430,13.31,74006.0,-1.69,-30.55,-30.95,0,*50
1493758977.87,36431,13.31,74004.5,-1.69,-30.55,-30.95,0,*51
1493758979.13,36432,13.31,74006.5,-1.69,-30.55,-31.01,0,*5E
1493758980.36,36433,13.31,74006.5,-1.67,-30.39,-30.83,0,*50
1493758981.57,36434,13.31,74006.8,-1.67,-30.45,-30.83,0,*5C
1493758982.82,36435,13.31,74004.8,-1.67,-30.39,-30.95,0,*51
1493758984.05,36436,13.31,74006.8,-1.67,-30.45,-30.95,0,*59
1493758985.3,36437,13.31,74006.3,-1.67,-30.39,-30.95,0,*53
1493758986.54,36438,13.31,74006.3,-1.67,-30.39,-30.83,0,*5B
1493758987.75,36439,13.31,74006.0,-1.67,-30.45,-30.83,0,*51
1493758988.98,36440,13.31,74008.3,-1.67,-30.61,-31.01,0,*52
1493758990.21,36441,13.31,74004.0,-1.67,-30.55,-31.01,0,*54
1493758991.44,36442,13.31,74006.3,-1.67,-30.45,-30.95,0,*5A
1493758992.7,36443,13.31,74008.3,-1.67,-30.61,-31.11,0,*50
1493758993.93,36444,13.31,74006.3,-1.67,-30.45,-30.95,0,*5C
1493758995.15,36445,13.31,74006.0,-1.67,-30.45,-30.95,0,*5D
1493758996.38,36446,13.31,74008.8,-1.67,-30.61,-31.01,0,*54
1493758997.62,36447,13.31,74008.3,-1.67,-30.61,-31.01,0,*55
1493758998.85,36448,13.31,74004.5,-1.67,-30.73,-31.17,0,*5E
1493759000.12,36449,13.31,74006.3,-1.67,-30.73,-31.11,0,*59
1493759001.37,36450,13.31,74004.0,-1.67,-30.55,-30.95,0,*58
1493759002.6,36451,13.31,74004.5,-1.67,-30.61,-31.01,0,*52
1493759003.83,36452,13.31,74006.5,-1.67,-30.61,-31.01,0,*51
1493759005.07,36453,13.31,74006.8,-1.67,-30.73,-31.17,0,*54
1493759006.33,36454,13.31,74006.0,-1.67,-30.73,-31.11,0,*55
1493759007.61,36455,13.31,74004.5,-1.69,-30.61,-31.11,0,*59
1493759008.85,36456,13.31,74008.3,-1.67,-30.61,-31.17,0,*52
1493759010.1,36457,13.31,74004.8,-1.69,-30.61,-31.01,0,*5A
1493759011.34,36458,13.31,74010.8,-1.71,-30.77,-31.17,0,*5C
1493759012.62,36459,13.31,74004.8,-1.69,-30.55,-31.11,0,*52
1493759013.87,36460,13.31,74006.8,-1.69,-30.45,-30.95,0,*54
1493759015.1,36461,13.31,74004.8,-1.69,-30.45,-31.01,0,*59
1493759016.35,36462,13.31,74004.0,-1.69,-30.55,-31.01,0,*5B
1493759017.63,36463,13.31,74004.5,-1.69,-30.61,-30.95,0,*51
1493759018.86,36464,13.31,74004.3,-1.69,-30.45,-31.01,0,*5C
1493759020.12,36465,13.31,74006.8,-1.69,-30.61,-31.17,0,*5C
1493759021.37,36466,13.31,74004.0,-1.69,-30.55,-31.01,0,*5F
1493759022.64,36467,13.31,74008.5,-1.69,-30.55,-30.95,0,*52
1493759023.89,36468,13.31,74004.0,-1.69,-30.55,-31.01,0,*51
1493759025.15,36469,13.31,74006.8,-1.69,-30.61,-31.01,0,*57
1493759026.4,36470,13.31,74008.8,-1.67,-30.55,-31.11,0,*57
1493759027.68,36471,13.31,74006.8,-1.69,-30.55,-31.11,0,*58
1493759028.94,36472,13.31,74006.0,-1.69,-30.61,-31.29,0,*57
1493759030.2,36473,13.31,74006.5,-1.69,-30.61,-31.17,0,*5B
1493759031.46,36474,13.31,74004.5,-1.67,-30.61,-31.11,0,*54
1493759032.72,36475,13.31,74008.3,-1.69,-30.61,-31.17,0,*5D
1493759033.95,36476,13.31,74008.3,-1.67,-30.73,-31.29,0,*5E
1493759035.21,36477,13.31,74010.3,-1.69,-30.73,-31.29,0,*51
1493759036.48,36478,13.31,74006.0,-1.69,-30.77,-31.29,0,*5A
1493759037.7,36479,13.31,74004.5,-1.67,-30.45,-30.95,0,*52
1493759038.97,36480,13.31,74010.0,-1.71,-30.77,-31.23,0,*5E
1493759040.23,36481,13.31,74006.8,-1.69,-30.61,-31.17,0,*56
1493759041.49,36482,13.31,74008.8,-1.67,-30.73,-31.11,0,*5E
1493759042.77,36483,13.31,74006.3,-1.69,-30.61,-31.11,0,*52
1493759044.03,36484,13.31,74008.0,-1.69,-30.77,-31.33,0,*52
1493759045.29,36485,13.31,74008.5,-1.69,-30.73,-31.29,0,*5C
1493759046.55,36486,13.31,74006.5,-1.71,-30.89,-31.39,0,*52
1493759047.81,36487,13.31,74004.8,-1.69,-30.73,-31.29,0,*5E
1493759049.05,36488,13.31,74010.0,-1.69,-30.83,-31.33,0,*55
1493759050.31,36489,13.31,74006.8,-1.69,-30.77,-31.33,0,*5F
1493759051.59,36490,13.31,74002.8,-1.69,-30.95,-31.51,0,*5F
1493759052.82,36491,13.31,74008.0,-1.71,-31.01,-31.57,0,*5D
1493759054.06,36492,13.31,74006.8,-1.69,-30.83,-31.45,0,*5F
1493759055.3,36493,13.31,74004.8,-1.69,-30.83,-31.29,0,*54
1493759056.56,36494,13.31,74006.5,-1.71,-30.89,-31.39,0,*51
1493759057.82,36495,13.31,74010.3,-1.71,-30.89,-31.51,0,*5E
1493759059.05,36496,13.31,74006.3,-1.71,-31.01,-31.57,0,*5A
1493759060.28,36497,13.31,74004.5,-1.71,-31.01,-31.51,0,*5D
1493759061.54,36498,13.31,74010.5,-1.71,-30.95,-31.57,0,*58
1493759062.8,36499,13.31,74006.0,-1.69,-30.77,-31.45,0,*5F
1493759064.07,36500,13.31,74006.8,-1.71,-30.77,-31.39,0,*5C
1493759065.33,36501,13.31,74004.0,-1.69,-30.83,-31.61,0,*52
1493759066.57,36502,13.31,74006.3,-1.69,-30.83,-31.45,0,*57
1493759067.83,36503,13.31,74008.3,-1.69,-31.01,-31.61,0,*5B
1493759069.11,36504,13.31,74006.8,-1.69,-30.95,-31.51,0,*53
1493759070.34,36505,13.31,74006.8,-1.71,-31.01,-31.57,0,*51
1493759071.54,36506,13.31,74006.5,-1.71,-31.05,-31.67,0,*55
1493759072.81,36507,13.31,74006.3,-1.71,-30.89,-31.51,0,*54
1493759074.06,36508,13.31,74004.3,-1.69,-30.77,-31.33,0,*57
1493759075.32,36509,13.31,74008.8,-1.69,-30.73,-31.33,0,*52
1493759076.55,36510,13.31,74008.8,-1.71,-30.83,-31.57,0,*5E
1493759077.82,36511,13.31,74004.8,-1.71,-30.77,-31.51,0,*52
1493759079.06,36512,13.31,74010.8,-1.71,-30.83,-31.51,0,*5A
1493759080.31,36513,13.31,74004.8,-1.71,-30.89,-31.57,0,*57
1493759081.58,36514,13.31,74004.3,-1.69,-30.73,-31.45,0,*5F
1493759082.81,36515,13.31,74004.8,-1.69,-30.67,-31.17,0,*5C
1493759084.07,36516,13.31,74006.3,-1.69,-30.73,-31.33,0,*5C
1493759085.33,36517,13.31,74006.8,-1.69,-30.77,-31.33,0,*59
1493759086.57,36518,13.31,74006.0,-1.71,-30.83,-31.39,0,*5E
1493759087.83,36519,13.31,74008.3,-1.71,-30.89,-31.51,0,*5B
1493759089.06,36520,13.31,74006.5,-1.71,-30.83,-31.57,0,*5D
1493759090.32,36521,13.31,74006.0,-1.71,-30.89,-31.57,0,*56
1493759091.58,36522,13.31,74008.3,-1.71,-30.89,-31.51,0,*53
1493759092.82,36523,13.31,74008.3,-1.71,-30.83,-31.57,0,*5E
1493759094.08,36524,13.31,74008.3,-1.69,-30.83,-31.51,0,*56
1493759095.28,36525,13.31,74006.5,-1.71,-31.01,-31.67,0,*50
1493759096.48,36526,13.31,74006.0,-1.71,-31.01,-31.67,0,*53
1493759097.71,36527,13.31,74004.0,-1.71,-31.01,-31.73,0,*57
1493759098.97,36528,13.31,74006.3,-1.71,-30.95,-31.73,0,*54
1493759100.2,36529,13.31,74004.8,-1.69,-31.01,-31.67,0,*55
1493759101.4,36530,13.31,74004.5,-1.71,-31.05,-31.67,0,*50
1493759102.6,36531,13.31,74008.5,-1.71,-31.01,-31.67,0,*55
1493759103.81,36532,13.31,74008.0,-1.71,-31.01,-31.67,0,*56
1493759105.04,36533,13.31,74004.8,-1.71,-30.89,-31.67,0,*56
1493759106.27,36534,13.31,74008.3,-1.71,-30.83,-31.57,0,*58
1493759107.5,36535,13.31,74006.0,-1.71,-31.01,-31.57,0,*52
1493759108.75,36536,13.31,74010.8,-1.73,-31.05,-31.73,0,*51
1493759109.95,36537,13.31,74004.8,-1.71,-31.01,-31.67,0,*53
1493759111.17,36538,13.31,74008.3,-1.73,-31.01,-31.67,0,*5E
1493759112.4,36539,13.31,74008.8,-1.73,-31.01,-31.67,0,*5F
1493759113.6,36540,13.31,74010.0,-1.75,-31.05,-31.79,0,*5C
1493759114.83,36541,13.31,74008.5,-1.73,-31.01,-31.67,0,*50
1493759116.1,36542,13.31,74004.8,-1.73,-30.89,-31.57,0,*51
1493759117.33,36543,13.31,74006.8,-1.71,-30.89,-31.67,0,*51
1493759118.57,36544,13.31,74006.5,-1.71,-30.89,-31.67,0,*56
1493759119.8,36545,13.31,74006.3,-1.71,-31.05,-31.91,0,*5B
1493759121.08,36546,13.31,74006.3,-1.73,-30.89,-31.73,0,*53
1493759122.3,36547,13.31,74010.0,-1.71,-31.01,-31.73,0,*51
1493759123.55,36548,13.31,74010.8,-1.73,-31.01,-31.73,0,*5C
1493759124.8,36549,13.31,74008.0,-1.73,-31.01,-31.73,0,*5D
1493759126.05,36550,13.31,74008.8,-1.73,-31.05,-31.85,0,*58
1493759127.3,36551,13.31,74012.0,-1.73,-31.01,-31.85,0,*5D
1493759128.55,36552,13.31,74010.5,-1.73,-31.01,-31.85,0,*5E
1493759129.81,36553,13.31,74010.8,-1.73,-31.17,-31.91,0,*5D
1493759131.03,36554,13.31,74010.3,-1.73,-31.01,-31.67,0,*54
1493759132.25,36555,13.31,74008.0,-1.73,-31.01,-31.67,0,*55
1493759133.5,36556,13.31,74006.8,-1.73,-31.01,-31.73,0,*53
1493759134.75,36557,13.31,74008.5,-1.73,-31.01,-31.91,0,*5E
1493759136.0,36558,13.31,74006.8,-1.73,-31.05,-31.85,0,*50
1493759137.26,36559,13.31,74008.5,-1.73,-31.05,-31.91,0,*54
1493759138.51,36560,13.31,74008.3,-1.73,-31.05,-31.85,0,*5B
1493759139.76,36561,13.31,74008.0,-1.73,-31.01,-31.85,0,*5E
1493759140.99,36562,13.31,74008.5,-1.73,-31.17,-32.01,0,*55
1493759142.24,36563,13.31,74008.5,-1.73,-31.05,-31.91,0,*5D
1493759143.49,36564,13.31,74010.0,-1.73,-31.05,-31.85,0,*5F
1493759144.74,36565,13.31,74010.5,-1.73,-31.05,-31.85,0,*5E
1493759145.99,36566,13.31,74010.3,-1.73,-30.89,-31.67,0,*54
1493759147.2,36567,13.31,74008.0,-1.75,-31.05,-31.79,0,*59
1493759148.47,36568,13.31,74008.3,-1.73,-30.89,-31.73,0,*5F
1493759149.73,36569,13.31,74010.3,-1.73,-30.89,-31.67,0,*5B
1493759150.99,36570,13.31,74008.0,-1.73,-30.67,-31.51,0,*56
1493759152.26,36571,13.31,74010.5,-1.73,-30.89,-31.73,0,*57
1493759153.52,36572,13.31,74010.0,-1.73,-31.01,-31.91,0,*59
1493759154.77,36573,13.31,74010.3,-1.73,-30.89,-31.67,0,*50
1493759155.97,36574,13.31,74006.8,-1.75,-31.05,-31.79,0,*5B
1493759157.22,36575,13.31,74008.8,-1.73,-31.01,-31.91,0,*5E
1493759158.48,36576,13.31,74008.8,-1.73,-31.05,-31.91,0,*59
1493759159.73,36577,13.31,74010.0,-1.73,-31.05,-31.91,0,*58
1493759161.0,36578,13.31,74006.5,-1.75,-31.23,-31.95,0,*51
1493759162.23,36579,13.31,74008.3,-1.75,-31.05,-31.91,0,*50
1493759163.51,36580,13.31,74008.0,-1.73,-30.89,-31.85,0,*50
1493759164.76,36581,13.31,74008.8,-1.73,-30.89,-31.67,0,*5D
1493759165.96,36582,13.31,74010.8,-1.75,-31.05,-31.79,0,*52
1493759167.22,36583,13.31,74008.0,-1.73,-31.01,-31.91,0,*57
1493759168.47,36584,13.31,74006.5,-1.73,-30.83,-31.73,0,*57
1493759169.71,36585,13.31,74008.5,-1.75,-30.95,-31.79,0,*5D
1493759170.96,36586,13.31,74010.3,-1.73,-31.01,-31.91,0,*52
1493759172.24,36587,13.31,74010.8,-1.73,-30.89,-31.85,0,*57
1493759173.49,36588,13.31,74008.3,-1.73,-31.01,-31.73,0,*50
1493759174.74,36589,13.31,74010.5,-1.73,-31.05,-31.85,0,*5C
1493759175.99,36590,13.31,74008.5,-1.73,-31.05,-31.85,0,*54
1493759177.24,36591,13.31,74006.5,-1.73,-31.01,-31.85,0,*51
1493759178.47,36592,13.31,74010.0,-1.75,-31.05,-31.91,0,*55
1493759179.72,36593,13.31,74006.3,-1.73,-31.01,-31.95,0,*52
1493759180.99,36594,13.31,74008.0,-1.75,-30.95,-31.91,0,*5B
1493759182.27,36595,13.31,74008.0,-1.73,-30.89,-31.91,0,*51
1493759183.52,36596,13.31,74008.8,-1.73,-31.05,-31.91,0,*57
1493759184.77,36597,13.31,74004.0,-1.73,-31.05,-31.91,0,*56
1493759186.04,36598,13.31,74010.3,-1.75,-31.11,-32.07,0,*56
1493759187.27,36599,13.31,74008.0,-1.75,-31.05,-31.91,0,*5E
1493759188.53,36600,13.31,74006.5,-1.75,-30.95,-31.95,0,*51
1493759189.79,36601,13.31,74010.3,-1.73,-31.05,-31.91,0,*5A
1493759191.04,36602,13.31,74010.3,-1.73,-31.01,-31.85,0,*58
1493759192.27,36603,13.31,74010.3,-1.75,-31.05,-32.07,0,*52
1493759193.5,36604,13.31,74008.3,-1.73,-31.17,-32.01,0,*56
1493759194.77,36605,13.31,74008.8,-1.75,-31.11,-32.19,0,*5E
1493759195.99,36606,13.31,74010.3,-1.73,-31.05,-32.01,0,*57
1493759197.22,36607,13.31,74008.0,-1.73,-31.05,-32.01,0,*56
1493759198.45,36608,13.31,74008.8,-1.75,-31.05,-31.91,0,*55
1493759199.71,36609,13.31,74008.8,-1.75,-30.95,-31.95,0,*58
1493759200.97,36610,13.31,74012.3,-1.75,-30.95,-31.91,0,*54
1493759202.23,36611,13.31,74006.3,-1.73,-31.01,-31.91,0,*5F
1493759203.49,36612,13.31,74012.3,-1.75,-31.23,-32.19,0,*59
1493759204.76,36613,13.31,74010.3,-1.75,-31.23,-32.19,0,*58
1493759206.03,36614,13.31,74010.0,-1.75,-31.11,-32.07,0,*51
1493759207.26,36615,13.31,74010.3,-1.75,-31.05,-31.95,0,*5D
1493759208.52,36616,13.31,74010.8,-1.73,-31.05,-31.91,0,*5C
1493759209.74,36617,13.31,74010.5,-1.73,-31.05,-32.13,0,*54
1493759210.98,36618,13.31,74010.5,-1.75,-31.05,-32.07,0,*58
1493759212.2,36619,13.31,74008.5,-1.73,-31.17,-32.01,0,*5A
1493759213.41,36620,13.31,74008.0,-1.75,-31.05,-32.01,0,*55
1493759214.68,36621,13.31,74010.3,-1.75,-31.11,-32.19,0,*58
1493759215.94,36622,13.31,74008.0,-1.75,-31.11,-31.95,0,*5C
1493759217.21,36623,13.31,74008.5,-1.75,-31.23,-32.19,0,*5B
1493759218.48,36624,13.31,74010.5,-1.75,-31.23,-32.07,0,*53
1493759219.71,36625,13.31,74010.5,-1.73,-31.17,-32.01,0,*55
1493759220.95,36626,13.31,74008.8,-1.75,-31.29,-32.19,0,*54
1493759222.22,36627,13.31,74008.3,-1.75,-31.11,-32.07,0,*51
1493759223.48,36628,13.31,74008.8,-1.75,-31.11,-32.07,0,*5E
1493759224.75,36629,13.31,74010.8,-1.75,-30.95,-31.95,0,*5A
1493759226.02,36630,13.31,74010.5,-1.75,-31.23,-32.19,0,*59
1493759227.24,36631,13.31,74012.3,-1.73,-31.05,-32.13,0,*50
1493759228.47,36632,13.31,74014.5,-1.73,-31.01,-32.01,0,*54
1493759229.7,36633,13.31,74010.3,-1.75,-31.01,-31.91,0,*59
1493759230.96,36634,13.31,74008.8,-1.75,-30.95,-31.95,0,*56
1493759232.23,36635,13.31,74008.8,-1.75,-31.11,-31.95,0,*5A
1493759233.46,36636,13.31,74008.0,-1.75,-31.05,-31.91,0,*58
1493759234.74,36637,13.31,74008.8,-1.73,-30.89,-31.91,0,*5A
1493759236.0,36638,13.31,74010.3,-1.77,-31.05,-31.95,0,*50
1493759237.24,36639,13.31,74008.0,-1.75,-31.05,-31.91,0,*57
1493759238.5,36640,13.31,74010.0,-1.75,-30.95,-31.95,0,*55
1493759239.78,36641,13.31,74010.0,-1.73,-30.89,-31.91,0,*5B
1493759241.06,36642,13.31,74008.3,-1.73,-30.89,-31.85,0,*5D
1493759242.33,36643,13.31,74008.0,-1.75,-31.11,-32.19,0,*5C
1493759243.56,36644,13.31,74010.3,-1.73,-31.17,-32.23,0,*52
1493759244.84,36645,13.31,74010.5,-1.73,-30.89,-31.85,0,*5A
1493759246.1,36646,13.31,74008.5,-1.75,-30.89,-31.91,0,*5A
1493759247.33,36647,13.31,74008.0,-1.75,-31.05,-32.07,0,*52
1493759248.57,36648,13.31,74010.5,-1.75,-31.29,-32.19,0,*5C
1493759249.81,36649,13.31,74010.3,-1.75,-31.05,-32.07,0,*5C
1493759251.03,36650,13.31,74008.3,-1.73,-31.17,-32.13,0,*54
1493759252.26,36651,13.31,74010.3,-1.73,-31.05,-32.01,0,*55
1493759253.53,36652,13.31,74010.5,-1.75,-31.11,-32.07,0,*53
1493759254.8,36653,13.31,74014.8,-1.75,-31.11,-32.19,0,*5D
1493759256.06,36654,13.31,74008.3,-1.75,-31.23,-32.19,0,*5B
1493759257.33,36655,13.31,74008.3,-1.75,-31.11,-32.07,0,*54
1493759258.6,36656,13.31,74008.8,-1.75,-31.11,-31.95,0,*5F
1493759259.86,36657,13.31,74010.3,-1.75,-30.95,-31.91,0,*57
1493759261.13,36658,13.31,74014.5,-1.75,-31.11,-32.07,0,*59
1493759262.36,36659,13.31,74010.5,-1.75,-31.05,-31.95,0,*55
1493759263.59,36660,13.31,74008.3,-1.75,-31.05,-31.91,0,*5B
1493759264.83,36661,13.31,74008.5,-1.75,-31.05,-32.19,0,*59
1493759266.1,36662,13.31,74012.8,-1.75,-31.11,-32.19,0,*5F
1493759267.37,36663,13.31,74014.8,-1.75,-31.11,-32.07,0,*51
1493759268.63,36664,13.31,74004.8,-1.75,-30.95,-32.07,0,*5B
1493759269.9,36665,13.31,74010.5,-1.75,-31.11,-32.19,0,*58
1493759271.16,36666,13.31,74006.8,-1.75,-31.11,-32.19,0,*5B
1493759272.43,36667,13.31,74012.5,-1.77,-31.05,-32.07,0,*52
1493759273.69,36668,13.31,74014.0,-1.75,-31.23,-32.19,0,*54
1493759274.96,36669,13.31,74010.0,-1.75,-31.11,-32.19,0,*54
1493759276.2,36670,13.31,74012.5,-1.75,-31.05,-32.19,0,*59
1493759277.49,36671,13.31,74010.5,-1.77,-30.95,-32.19,0,*52
1493759278.75,36672,13.31,74010.0,-1.77,-31.05,-32.07,0,*56
1493759280.04,36673,13.31,74008.3,-1.77,-31.23,-32.19,0,*5C
1493759281.34,36674,13.31,74008.0,-1.77,-31.23,-32.19,0,*5B
1493759282.61,36675,13.31,74010.3,-1.75,-31.23,-32.19,0,*58
1493759283.87,36676,13.31,74008.0,-1.75,-31.23,-32.19,0,*5B
1493759285.14,36677,13.31,74012.8,-1.77,-31.29,-32.19,0,*52
1493759286.4,36678,13.31,74008.3,-1.81,-31.23,-32.29,0,*5D
1493759287.69,36679,13.31,74010.8,-1.77,-31.11,-32.19,0,*57
1493759288.95,36680,13.31,74008.0,-1.77,-31.05,-32.07,0,*5B
1493759290.25,36681,13.31,74008.5,-1.77,-31.11,-32.19,0,*50
1493759291.5,36682,13.31,74012.3,-1.81,-31.23,-32.29,0,*58
1493759292.79,36683,13.31,74008.5,-1.77,-31.23,-32.19,0,*53
1493759294.09,36684,13.31,74008.8,-1.77,-31.23,-32.07,0,*5B
1493759295.38,36685,13.31,74008.5,-1.77,-31.11,-32.19,0,*54
1493759296.68,36686,13.31,74012.5,-1.77,-31.23,-32.19,0,*56
1493759297.94,36687,13.31,74008.8,-1.77,-31.05,-32.19,0,*53
1493759299.23,36688,13.31,74010.3,-1.77,-31.23,-32.19,0,*58